Theta_e
314 314 314 313 313 314 314 315 315 314 314 314 314 314 315 316 316 315 313 317 319 330 329 325 325 326 326 320 320 321 311 308 310 310 312 318 316 322 323 321 321 323 323 326 330
313 313 313 313 313 313 313 313 313 314 314 314 314 314 314 315 312 310 321 325 332 333 314 319 316 318 319 321 320 316 312 311 316 316 315 318 318 319 319 318 320 321 324 326 328
311 312 312 313 313 312 312 312 312 313 313 313 313 314 314 314 308 309 325 328 329 326 314 315 320 318 313 318 319 318 312 317 317 319 319 318 318 320 318 316 319 319 322 324 325
310 311 311 312 312 313 312 312 312 313 312 313 313 313 314 313 299 318 320 322 326 318 314 310 311 312 311 311 317 314 318 319 319 320 319 317 320 318 319 319 323 324 325 325 324
311 310 311 312 312 312 312 312 312 312 312 313 313 313 311 304 305 318 322 323 318 321 316 313 309 311 311 313 315 313 315 318 320 320 320 320 317 318 319 323 325 325 324 323 323
311 310 311 312 312 313 313 313 313 313 312 312 313 313 308 298 313 314 314 315 315 315 318 315 312 315 314 314 313 316 316 316 317 318 319 317 318 319 320 323 323 323 322 322 322
310 310 311 311 312 312 312 312 312 312 312 313 313 312 305 302 311 313 313 311 313 312 310 315 317 314 315 312 317 316 311 314 316 316 315 317 313 315 321 322 321 321 320 321 321
312 311 310 311 311 312 312 313 312 312 313 314 314 311 301 310 312 309 310 309 312 313 313 314 317 315 313 315 313 310 312 306 313 315 315 315 307 316 321 320 319 319 319 319 321
312 312 312 311 311 311 312 312 312 313 313 313 312 308 300 312 306 309 310 305 309 311 313 313 311 309 310 306 305 308 303 305 307 314 314 312 309 315 318 318 317 318 318 319 320
311 311 312 311 311 312 312 311 313 311 312 314 311 302 305 300 304 308 311 310 307 307 307 307 306 303 304 304 297 300 302 304 305 311 313 310 310 314 316 316 316 317 317 318 320
311 311 311 311 312 311 310 310 306 305 308 302 301 301 302 305 307 304 307 307 308 305 300 305 299 297 300 303 305 305 305 304 308 312 310 309 311 313 314 315 315 316 317 319 321
311 311 310 311 311 311 310 304 303 304 296 302 301 301 303 304 297 301 306 300 300 298 301 301 296 302 304 304 303 304 303 304 308 312 310 309 309 312 314 314 315 317 318 320 321
311 310 310 311 310 309 307 305 309 308 297 298 301 300 301 303 298 298 302 300 297 298 299 297 301 304 302 301 301 302 302 303 304 309 309 309 306 309 313 315 315 316 319 320 320
310 311 310 310 305 308 304 309 310 309 291 292 297 300 302 303 299 305 305 300 297 294 299 299 302 302 301 300 302 298 305 305 304 303 299 308 297 306 310 311 313 316 319 319 320
310 310 309 308 306 304 306 310 310 306 279 294 297 308 303 299 300 302 308 302 294 295 296 295 299 299 299 300 303 301 306 305 304 302 301 301 298 302 308 307 311 315 318 320 319
309 309 308 309 309 308 310 309 305 288 279 290 296 295 296 298 298 301 301 305 303 296 297 298 304 303 301 304 304 305 303 304 305 302 294 300 299 300 303 307 311 315 318 319 319
309 307 307 309 303 310 309 302 286 282 292 288 290 293 292 292 293 296 294 295 294 290 289 294 297 302 304 300 304 304 300 293 293 292 294 302 299 302 308 311 313 315 317 318 323
307 306 308 308 312 309 304 293 281 287 287 293 291 291 288 291 292 294 292 290 296 295 293 288 287 298 303 301 300 301 300 294 288 291 294 302 297 302 313 315 317 316 316 322 325
305 310 308 310 311 310 297 285 285 288 291 289 290 287 287 290 291 290 290 291 294 295 290 290 289 301 302 304 303 300 298 304 298 301 297 301 306 311 313 313 314 315 316 319 325
308 307 307 311 312 308 293 286 290 293 293 292 286 289 284 287 288 290 289 294 292 293 295 296 290 296 301 303 303 302 306 296 300 292 292 298 301 303 307 310 313 313 314 318 326
307 300 307 313 312 301 289 289 292 295 296 291 289 288 289 288 289 287 288 292 294 294 296 296 293 296 299 299 297 299 299 300 302 300 294 293 299 309 309 311 312 313 316 319 325
305 296 307 311 296 297 291 292 294 293 296 293 294 292 290 290 289 288 288 291 295 296 292 297 294 292 296 301 304 302 300 302 298 297 300 300 299 309 311 313 314 316 318 322 326
300 300 308 306 291 292 293 292 294 292 293 292 291 294 295 291 287 288 291 297 295 294 292 296 293 288 293 299 302 299 302 304 304 305 299 296 300 310 313 314 317 318 320 325 325
301 295 300 303 299 291 290 290 290 295 293 294 292 294 293 290 293 290 291 294 296 295 297 296 293 292 289 295 299 297 300 303 303 299 300 300 300 304 311 314 317 320 323 324 324
302 297 297 290 293 292 292 292 290 289 294 295 292 292 291 288 290 289 291 293 295 296 296 293 291 293 294 296 299 299 299 300 301 302 300 303 302 305 313 316 316 321 322 322 322
298 296 298 294 294 291 292 291 290 290 289 290 290 292 292 288 289 289 291 292 290 293 291 292 291 295 290 293 297 297 300 301 301 303 304 304 303 308 311 312 313 318 320 321 322
304 302 295 293 292 290 290 290 290 291 293 294 292 292 290 293 295 296 298 298 295 292 292 292 293 293 287 293 295 292 299 301 302 304 304 300 303 309 308 309 311 314 319 321 323
Wind_Speed
16 15 15 16 16 16 16 15 14 14 15 16 17 19 19 19 21 18 15 9 6 13 9 12 14 16 14 19 23 20 17 18 21 21 17 13 8 10 4 10 10 9 12 11 11
17 17 16 15 15 15 15 15 15 14 14 16 17 18 19 20 20 19 17 8 8 9 14 17 18 18 16 20 21 21 17 25 21 19 19 16 10 14 9 12 16 15 18 13 7
17 17 17 18 17 16 17 16 16 17 16 15 15 16 20 22 14 12 12 6 8 10 18 18 19 19 23 22 24 24 24 24 21 23 23 21 16 16 19 16 17 15 20 14 16
18 18 17 17 17 18 17 17 18 18 17 16 16 16 19 13 10 10 6 3 4 12 20 22 23 26 25 26 27 30 29 26 26 28 25 23 23 21 22 21 15 19 23 20 18
17 18 19 19 19 18 16 16 17 18 18 17 16 15 13 10 16 5 7 10 10 11 20 25 28 26 32 28 27 32 28 28 28 28 28 28 31 25 26 24 21 21 23 22 20
17 17 19 19 19 19 18 17 16 17 16 16 15 12 13 23 11 10 11 12 14 13 15 22 28 25 30 31 33 30 32 33 31 32 32 30 32 31 24 29 28 22 23 24 22
16 17 18 19 20 20 20 20 20 20 19 16 15 12 17 22 16 15 13 16 17 17 18 18 23 28 27 34 31 33 35 34 34 30 31 26 37 34 27 29 29 23 24 24 18
16 15 17 18 20 21 22 22 23 24 23 18 12 15 15 15 15 21 20 19 19 19 18 20 16 25 30 25 30 34 34 31 29 33 29 25 34 28 28 26 25 22 22 16 21
16 16 16 18 19 21 22 27 28 23 16 10 12 15 19 4 13 12 18 19 18 20 20 17 17 20 22 23 22 28 28 36 30 30 27 28 37 27 26 26 26 23 16 18 21
18 17 17 18 19 20 21 29 17 9 12 10 12 7 15 15 1 3 6 8 14 17 21 21 16 19 20 23 29 29 32 32 33 27 29 31 35 27 24 22 27 22 18 22 23
20 18 18 18 19 20 20 17 4 10 14 14 13 15 19 10 15 14 10 8 11 15 27 23 21 27 42 37 32 31 26 33 31 27 30 30 31 22 24 27 25 23 18 22 23
21 21 20 18 19 21 16 11 8 7 13 22 25 28 26 22 24 21 17 17 16 20 23 26 31 47 27 32 32 32 31 32 29 28 25 25 29 24 25 23 26 25 23 21 25
20 20 21 19 20 15 11 10 7 10 11 24 19 20 19 16 23 22 22 22 23 23 25 31 41 26 36 32 31 32 31 29 32 25 26 26 26 30 29 25 24 29 28 24 18
21 21 21 18 13 11 8 8 7 8 10 15 11 6 10 7 10 15 20 24 25 29 23 27 33 35 34 34 35 33 30 28 27 23 21 23 22 33 25 25 25 26 21 16 22
22 23 20 11 12 9 10 7 9 8 9 8 8 8 5 8 8 6 12 14 23 27 24 30 30 37 35 42 32 36 24 27 25 20 25 29 20 20 21 23 24 18 20 22 15
23 23 19 5 9 9 12 7 6 8 11 3 3 7 13 10 6 3 6 15 13 22 30 29 28 30 40 34 30 29 28 27 23 19 21 27 23 22 22 24 21 23 21 19 19
25 19 12 7 9 12 7 7 7 10 8 8 13 4 12 17 6 17 6 13 12 16 24 30 31 29 33 32 36 30 26 17 20 20 28 19 21 22 23 20 25 22 19 13 14
24 19 8 5 3 7 6 6 8 18 14 19 14 16 18 19 14 11 11 14 19 14 22 25 28 34 28 31 34 31 30 18 33 15 20 24 25 21 20 18 21 12 10 12 14
27 8 3 7 6 2 5 6 11 14 16 14 17 19 17 13 14 12 17 11 6 7 10 19 32 27 34 24 27 39 30 33 25 24 17 17 17 16 17 12 14 18 17 13 15
9 7 6 6 6 4 4 7 9 11 14 17 17 13 16 13 4 20 7 1 6 1 15 17 12 32 29 32 30 34 26 24 23 28 22 14 12 9 7 16 19 18 15 18 16
8 6 8 4 2 4 4 7 12 13 9 10 19 18 16 18 15 15 5 6 5 9 15 19 5 17 33 34 30 25 24 31 20 19 16 16 10 3 4 12 8 16 16 19 18
6 5 7 4 3 5 7 11 14 11 13 7 11 13 13 14 13 15 12 1 7 10 11 13 7 17 22 18 32 31 32 30 19 26 16 12 6 6 4 16 5 12 15 20 18
7 6 7 7 5 7 14 17 17 10 13 9 10 11 17 14 9 3 9 12 5 2 5 10 11 15 7 22 28 32 34 27 27 15 21 14 8 6 6 4 10 13 18 17 18
5 6 4 1 2 6 13 13 15 16 9 9 17 12 12 16 14 11 10 7 10 7 9 7 15 20 11 8 21 29 32 25 27 17 16 21 14 6 10 10 7 5 12 16 18
4 4 4 5 8 12 15 16 14 9 13 19 11 11 17 17 19 10 7 8 4 8 5 5 14 29 17 16 25 32 26 30 24 25 20 21 14 11 11 14 10 9 12 17 19
4 6 6 13 9 12 14 11 15 13 13 15 19 19 17 17 17 21 17 13 5 4 3 6 9 23 18 13 25 12 16 27 24 29 20 9 18 10 11 7 8 10 11 15 17
2 5 5 10 6 7 8 12 15 16 10 12 15 19 19 19 17 20 21 18 11 8 9 6 7 13 12 18 23 13 15 15 22 23 21 16 5 8 7 7 7 4 8 14 16
Wind_Direction
359 357 356 354 353 350 350 347 339 337 330 331 336 335 332 323 302 258 242 243 206 167 201 223 223 200 230 229 229 233 252 248 250 258 267 275 236 243 17 299 285 282 272 272 302
356 355 352 349 346 345 342 341 335 328 329 332 336 333 327 316 299 273 250 140 136 170 206 220 205 206 218 232 235 229 238 246 253 265 266 263 268 272 212 237 258 262 258 253 245
351 348 348 343 339 338 337 333 330 330 330 327 326 324 321 314 300 264 54 103 183 216 240 246 243 210 229 230 232 229 240 257 251 258 267 272 267 283 277 273 273 278 285 316 304
347 344 341 338 335 332 333 327 325 323 320 323 322 323 320 307 255 75 58 42 253 237 232 237 238 240 231 233 232 245 239 249 257 274 274 259 267 260 265 276 287 283 285 291 289
341 339 336 333 331 328 322 318 315 312 312 312 314 316 311 237 247 117 183 222 269 209 229 219 226 222 238 234 239 237 244 247 257 263 261 270 279 273 269 275 284 281 281 281 277
338 339 333 331 328 325 321 317 309 301 301 298 296 297 264 266 281 299 313 275 261 263 229 229 229 229 239 242 244 249 253 256 258 260 265 270 269 264 257 266 273 273 277 273 277
335 335 332 329 326 324 319 313 307 299 297 290 279 261 266 256 288 291 271 272 278 277 264 254 241 241 239 247 252 258 261 260 255 257 261 256 263 261 267 268 272 268 267 264 273
331 323 325 324 323 319 315 307 299 294 295 289 255 241 255 284 262 252 253 255 247 250 254 277 277 248 246 260 249 249 253 257 251 252 248 245 258 265 268 268 265 269 270 280 279
335 331 321 315 315 314 311 301 298 290 278 254 222 223 266 124 226 247 246 255 257 234 237 243 254 249 233 239 251 236 244 241 252 247 250 241 255 261 269 264 267 266 275 271 279
341 337 329 321 313 307 300 287 270 273 232 210 247 232 240 260 166 276 259 229 251 242 219 218 229 231 230 218 226 229 236 243 255 256 243 245 256 251 262 264 266 269 265 272 280
340 336 331 329 320 308 309 294 210 204 220 265 292 227 291 274 289 269 256 237 239 233 222 201 211 217 220 218 237 241 247 247 251 237 244 261 266 248 257 258 260 260 261 272 281
335 332 329 325 315 305 287 321 350 313 293 277 266 261 261 273 275 264 259 245 233 233 221 216 214 222 226 229 229 242 251 252 260 260 254 249 261 266 257 257 271 275 264 271 277
328 327 323 322 312 287 317 312 322 302 273 277 267 258 247 238 248 243 242 234 240 230 228 222 226 229 227 235 235 233 235 242 252 259 258 267 266 262 257 265 266 270 271 267 274
329 326 321 324 282 337 289 354 277 325 279 275 185 171 182 218 254 226 237 229 237 237 240 237 237 232 228 231 229 235 228 240 251 259 259 254 263 256 259 254 259 257 257 250 251
326 324 318 305 308 304 343 310 335 263 277 121 131 133 227 233 331 52 184 226 240 238 230 239 230 231 235 225 225 242 234 235 240 248 259 253 257 266 273 264 265 258 257 257 255
326 328 323 235 241 302 321 303 272 246 242 123 158 17 261 227 249 211 217 237 254 243 251 242 244 236 234 240 225 239 235 242 245 247 248 245 246 263 261 264 262 254 255 246 231
327 330 305 319 328 340 315 289 239 254 6 42 349 313 299 290 216 264 271 283 262 216 234 244 245 247 237 223 236 223 223 222 228 224 245 247 243 258 267 270 249 243 257 225 157
322 315 214 288 312 301 269 246 258 351 15 333 333 315 294 286 252 253 237 256 265 241 283 223 231 230 224 227 217 222 211 218 217 221 240 230 242 255 265 240 250 256 279 143 160
308 231 237 18 336 297 284 261 2 8 347 329 312 281 275 284 273 261 267 259 314 349 297 265 229 228 226 227 230 213 210 220 249 229 246 259 232 224 250 238 244 239 221 195 164
306 279 53 10 340 290 272 318 341 345 340 320 301 298 309 304 299 286 2 74 286 73 283 286 276 231 228 219 235 231 209 208 224 240 243 230 253 212 223 226 225 237 214 179 155
263 268 79 28 293 254 299 326 329 341 358 326 317 305 306 301 292 291 263 134 307 306 285 288 276 269 233 200 211 216 210 213 226 230 236 252 245 159 253 274 231 205 196 165 163
279 310 76 256 313 285 292 343 301 309 301 304 300 299 308 320 313 283 278 240 208 297 307 300 288 261 242 285 211 213 218 203 223 216 237 271 187 95 225 247 257 195 163 153 167
303 296 140 257 315 331 325 310 281 303 316 326 309 314 315 317 301 308 264 110 187 292 314 354 249 255 225 233 210 226 202 209 216 231 209 229 183 144 264 189 226 185 150 149 164
299 321 3 8 228 275 311 315 324 309 331 307 301 306 318 325 309 297 290 175 209 251 248 297 267 265 238 258 199 218 205 208 195 220 196 223 106 185 209 138 121 89 126 158 165
346 278 23 297 308 311 290 289 309 329 337 307 294 329 334 320 316 310 312 284 219 17 266 237 264 245 239 299 314 197 219 206 206 211 223 195 218 204 138 85 80 130 157 157 164
323 330 332 295 289 308 299 296 314 336 327 304 307 319 324 318 304 301 321 316 354 10 276 267 274 259 257 251 278 269 222 201 212 202 234 189 182 209 273 6 105 125 163 169 172
46 278 291 283 303 310 298 326 312 316 303 298 308 304 301 304 310 292 290 280 263 248 274 261 295 279 227 226 260 241 208 230 206 201 216 225 160 221 233 258 281 220 163 187 185